Regional Weather Roundup
Issued by NWS

Home | Current Version | Previous Version | Text Only | Print | Product List | Glossary Off
Versions: 1 2 3 4 5 6 7 8 9 10 11 12 13 14 15 16 17 18 19 20 21 22 23 24 25 26 27 28 29 30 31 32 33 34 35 36 37 38 39 40 41 42 43 44 45 46 47 48 49 50

000
ASUS43 KDMX 190106
RWRIA

WEATHER ROUNDUP FOR IOWA
NATIONAL WEATHER SERVICE DES MOINES IA
700 PM CST WED JAN 18 2017

NOTE: "FAIR" INDICATES FEW OR NO CLOUDS BELOW 12,000 FEET WITH NO
SIGNIFICANT WEATHER AND/OR OBSTRUCTIONS TO VISIBILITY.

* - THESE STATIONS ARE NOT NWS STATIONS...THUS NOT UNDER NWS
QUALITY CONTROL.  THEY ALSO DO NOT REPORT WEATHER SUCH
AS PRECIPITATION OR FOG.

IAZ001>003-012>014-020>022-031>034-043>046-190200-
   NORTHWEST IOWA

CITY           SKY/WX    TMP DP  RH WIND       PRES   REMARKS
CARROLL *      CLEAR     36  36 100 S9        29.91S WCI  29
CHEROKEE *     CLEAR     38  37  94 S8        29.86F WCI  32
DENISON *      CLEAR     41  37  87 S12       29.88S
LE MARS *      CLEAR     39  36  87 S8        29.85F WCI  34
ORANGE CITY *  CLEAR     37  37 100 S10       29.84S WCI  30
SHELDON *      CLEAR     39  39 100 S15       29.82S WCI  31
SIOUX CITY     CLEAR     41  37  86 S10       29.86S
SPENCER        CLEAR     37  35  92 S12       29.85F WCI  29
STORM LAKE *   CLEAR     36  34  93 S12       29.87F WCI  27
$$

IAZ055>058-069>071-079>083-090>094-190200-
   SOUTHWEST IOWA

CITY           SKY/WX    TMP DP  RH WIND       PRES   REMARKS
ATLANTIC *     CLEAR     39  36  87 S9        29.93S WCI  33
AUDUBON *      CLEAR     39  36  87 S8        29.93S WCI  34
CLARINDA *     CLEAR     39  37  93 S3        29.97F
COUNCIL BLFS * CLEAR     41  37  87 S12       29.91R
CRESTON *      CLEAR     34  34 100 SE7       29.97S WCI  28
HARLAN  *      CLEAR     39  37  93 S6        29.94F WCI  35
LAMONI         FOG       35  35 100 S10       29.98F VSB 1/2 WCI  27
RED OAK *      CLEAR     39  36  87 S7        29.94S WCI  34
SHENANDOAH *   CLEAR     39  36  87 SE6       29.95S WCI  35
$$

IAZ047>049-059>061-072>074-084-190200-
   CENTRAL IOWA

CITY           SKY/WX    TMP DP  RH WIND       PRES   REMARKS
AMES           CLEAR     34  34 100 SE7       29.96S WCI  28
ANKENY *       CLEAR     36  32  87 S8        29.99R WCI  29
BOONE *        CLEAR     36  36 100 S10       29.94R WCI  28
CHARITON *     FOG       34  34 100 S9        29.99S VSB 1   WCI  26
DES MOINES     CLEAR     37  33  85 S13       29.98R WCI  29
GRINNELL*      CLEAR     36  33  90 S10       30.00R WCI  28
KNOXVILLE *    MOCLDY    36  34  93 S14       29.98S FOG     WCI  27
MARSHALLTOWN   CLEAR     37  34  89 S8        29.97S WCI  31
NEWTON *       CLEAR     36  34  93 S9        29.99R WCI  29
PELLA *        CLEAR     36  33  92 S8        30.02S WCI  29
PERRY *          N/A     37  35  95 SE8       29.95R WCI  30
$$

IAZ004>006-015-016-023>025-035-036-190200-
   NORTH CENTRAL IOWA

CITY           SKY/WX    TMP DP  RH WIND       PRES   REMARKS
ALGONA *       CLEAR     37  37 100 S16       29.88F WCI  28
CLARION *      CLEAR     36  36 100 S14       29.92S WCI  27
ESTHERVILLE    CLEAR     35  35 100 S12       29.85F WCI  27
FORT DODGE *   CLEAR     39  34  81 S7        29.92F WCI  34
MASON CITY     CLEAR     33  32  96 S6        29.93F WCI  28
FOREST CITY *    N/A     32  32 100 SE7       29.91F WCI  26
WEBSTER CITY * CLEAR     36  36 100 S9        29.92S WCI  29
IOWA FALLS *     N/A     36  33  92 SE5       29.96S WCI  32
$$

IAZ007>011-017>019-026>030-037>042-050>054-066-190200-
   NORTHEAST IOWA

CITY           SKY/WX    TMP DP  RH WIND       PRES   REMARKS
CEDAR RAPIDS   CLEAR     35  33  92 S7        30.01S WCI  29
CHARLES CITY * CLOUDY    34  34 100 SE10      29.95F WCI  26
CLINTON *      CLEAR     31  29  92 SE7       30.07S WCI  24
DECORAH *      FOG       32  32 100 VRB5G14   29.96F VSB 3/4 WCI  27
DUBUQUE        CLOUDY    32  31  96 S7        30.02S FOG     WCI  26
MONTICELLO *   CLEAR     34  32  93 S7        30.02F FOG     WCI  28
OELWEIN *      CLOUDY    34  34 100 S10       29.98F FOG     WCI  26
WATERLOO       CLEAR     34  32  92 SE7       29.98F FOG     WCI  28
$$

IAZ064-065-067-068-078-190200-
   EAST CENTRAL IOWA

CITY           SKY/WX    TMP DP  RH WIND       PRES   REMARKS
DAVENPORT      CLEAR     34  32  92 S8        30.06S WCI  27
IOWA CITY      CLEAR     33  31  92 SE5       30.05S WCI  29
MUSCATINE *    CLEAR     34  32  93 CALM      30.06S
QUAD CITIES    CLEAR     31  28  89 E3        30.05S FOG
$$

IAZ062-063-075>077-085>089-095>099-190200-
   SOUTHEAST IOWA

CITY           SKY/WX    TMP DP  RH WIND       PRES   REMARKS
BURLINGTON     CLEAR     37  35  92 S7        30.05S WCI  32
FAIRFIELD *    MOCLDY    36  34  93 S10       30.03F FOG     WCI  28
FORT MADISON * CLEAR     36  34  93 CALM      30.06S
KEOKUK *       CLEAR     36  34  93 CALM      30.04F
OSKALOOSA *      N/A     33  32  96 S8        30.02S WCI  26
OTTUMWA        CLEAR     36  32  85 SE3       30.02S
WASHINGTON *   CLEAR     36  34  93 S8        30.05S FOG     WCI  29
$$

ABBREVIATIONS USED IN REMARKS
   TC - TEMPERATURES IN CELSIUS
  WCI - WIND CHILL INDEX
   HX - HEAT INDEX
  VSB - VISIBILITY
$$





USA.gov is the U.S. government's official web portal to all federal, state and local government web resources and services.